• Em Portugal
  • Lista de países
  • Para 7 dias
  • Temperatura da água
  • Mapas de satélite
  • Mapa do tempo
  • Widgets de tempo
  • user-avatar
    Iniciar Sessão

    Previsão horária em Serove

    Hoje, 24 Outubro, Quarta-feira

    Tempo Temperatura Precipitação Vento Pressão Humidade
    00:00 +16°C° 0 mm 5 m/s 673 mmHg 48%
    01:00 +15°C° 0 mm 5 m/s 672 mmHg 51%
    02:00 +15°C° 0 mm 5 m/s 672 mmHg 54%
    03:00 +15°C° 0 mm 5 m/s 672 mmHg 57%
    04:00 +14°C° 0 mm 5 m/s 672 mmHg 61%
    05:00 +14°C° 0 mm 5 m/s 672 mmHg 65%
    06:00 +15°C° 0 mm 5 m/s 672 mmHg 62%
    07:00 +15°C° 0 mm 6 m/s 673 mmHg 60%
    08:00 +16°C° 0 mm 6 m/s 673 mmHg 57%
    09:00 +19°C° 0 mm 6 m/s 673 mmHg 50%
    10:00 +21°C° 0 mm 6 m/s 674 mmHg 42%
    11:00 +23°C° 0 mm 6 m/s 674 mmHg 34%
    12:00 +24°C° 0 mm 6 m/s 673 mmHg 31%
    13:00 +26°C° 0 mm 6 m/s 672 mmHg 27%
    14:00 +26°C° 0 mm 5 m/s 672 mmHg 24%
    15:00 +26°C° 0 mm 5 m/s 671 mmHg 24%
    16:00 +26°C° 0 mm 5 m/s 671 mmHg 24%
    17:00 +25°C° 0 mm 5 m/s 670 mmHg 24%
    18:00 +23°C° 0 mm 4 m/s 671 mmHg 27%
    19:00 +22°C° 0 mm 4 m/s 671 mmHg 30%
    20:00 +20°C° 0 mm 3 m/s 671 mmHg 33%
    21:00 +20°C° 0 mm 3 m/s 671 mmHg 34%
    22:00 +19°C° 0 mm 3 m/s 671 mmHg 35%
    23:00 +19°C° 0 mm 3 m/s 671 mmHg 37%

    Amanhã, 25 Outubro, Quinta-feira

    Tempo Temperatura Precipitação Vento Pressão Humidade
    00:00 +18°C° 0 mm 3 m/s 671 mmHg 38%
    01:00 +18°C° 0 mm 2 m/s 670 mmHg 39%
    02:00 +17°C° 0 mm 2 m/s 670 mmHg 40%
    03:00 +17°C° 0 mm 2 m/s 670 mmHg 41%
    04:00 +16°C° 0 mm 2 m/s 670 mmHg 43%
    05:00 +16°C° 0 mm 2 m/s 670 mmHg 44%
    06:00 +17°C° 0 mm 3 m/s 670 mmHg 40%
    07:00 +19°C° 0 mm 4 m/s 671 mmHg 36%
    08:00 +21°C° 0 mm 5 m/s 672 mmHg 31%
    09:00 +23°C° 0 mm 5 m/s 672 mmHg 26%
    10:00 +27°C° 0 mm 5 m/s 672 mmHg 21%
    11:00 +29°C° 0 mm 5 m/s 672 mmHg 16%
    12:00 +30°C° 0 mm 5 m/s 672 mmHg 14%
    13:00 +32°C° 0 mm 5 m/s 671 mmHg 12%
    14:00 +33°C° 0 mm 5 m/s 671 mmHg 10%
    15:00 +33°C° 0 mm 5 m/s 670 mmHg 11%
    16:00 +32°C° 0 mm 5 m/s 670 mmHg 11%
    17:00 +32°C° 0 mm 5 m/s 670 mmHg 11%
    18:00 +29°C° 0 mm 5 m/s 670 mmHg 14%
    19:00 +27°C° 0 mm 4 m/s 670 mmHg 16%
    20:00 +25°C° 0 mm 3 m/s 670 mmHg 19%
    21:00 +25°C° 0 mm 3 m/s 670 mmHg 21%
    22:00 +24°C° 0 mm 3 m/s 671 mmHg 23%
    23:00 +22°C° 0 mm 3 m/s 671 mmHg 25%

    Depois de amanhã, 26 Outubro, Sexta-feira

    Tempo Temperatura Precipitação Vento Pressão Humidade
    00:00 +22°C° 0 mm 3 m/s 670 mmHg 28%
    01:00 +21°C° 0 mm 3 m/s 670 mmHg 31%
    02:00 +21°C° 0 mm 3 m/s 670 mmHg 33%
    03:00 +20°C° 0 mm 3 m/s 670 mmHg 36%
    04:00 +20°C° 0 mm 3 m/s 670 mmHg 39%
    05:00 +19°C° 0 mm 3 m/s 670 mmHg 42%
    06:00 +21°C° 0 mm 4 m/s 670 mmHg 39%
    07:00 +22°C° 0 mm 4 m/s 671 mmHg 36%
    08:00 +23°C° 0 mm 5 m/s 672 mmHg 32%
    09:00 +27°C° 0 mm 5 m/s 672 mmHg 27%
    10:00 +29°C° 0 mm 5 m/s 672 mmHg 22%
    11:00 +32°C° 0 mm 6 m/s 672 mmHg 17%
    12:00 +33°C° 0 mm 6 m/s 672 mmHg 15%
    13:00 +34°C° 0 mm 6 m/s 671 mmHg 14%
    14:00 +35°C° 0 mm 6 m/s 671 mmHg 12%
    15:00 +34°C° 0 mm 6 m/s 670 mmHg 12%
    16:00 +34°C° 0 mm 6 m/s 670 mmHg 12%
    17:00 +33°C° 0 mm 5 m/s 670 mmHg 12%
    18:00 +32°C° 0 mm 5 m/s 670 mmHg 13%
    19:00 +29°C° 0 mm 4 m/s 670 mmHg 15%
    20:00 +27°C° 0 mm 3 m/s 670 mmHg 16%
    21:00 +26°C° 0 mm 3 m/s 671 mmHg 17%
    22:00 +25°C° 0 mm 3 m/s 671 mmHg 18%
    23:00 +25°C° 0 mm 3 m/s 671 mmHg 19%

    27 Outubro, Sábado

    Tempo Temperatura Precipitação Vento Pressão Humidade
    00:00 +24°C° 0 mm 3 m/s 670 mmHg 22%
    01:00 +22°C° 0 mm 3 m/s 670 mmHg 24%
    02:00 +21°C° 0 mm 3 m/s 670 mmHg 27%
    03:00 +21°C° 0 mm 3 m/s 670 mmHg 30%
    04:00 +20°C° 0 mm 3 m/s 670 mmHg 32%
    05:00 +20°C° 0 mm 3 m/s 670 mmHg 35%
    06:00 +21°C° 0 mm 4 m/s 671 mmHg 33%
    07:00 +23°C° 0 mm 5 m/s 671 mmHg 30%
    08:00 +26°C° 0 mm 6 m/s 672 mmHg 28%
    09:00 +28°C° 0 mm 6 m/s 672 mmHg 25%
    10:00 +30°C° 0 mm 6 m/s 673 mmHg 21%
    11:00 +33°C° 0 mm 6 m/s 673 mmHg 18%
    12:00 +34°C° 0 mm 6 m/s 672 mmHg 16%
    13:00 +35°C° 0 mm 6 m/s 671 mmHg 15%
    14:00 +36°C° 0 mm 6 m/s 671 mmHg 13%
    15:00 +35°C° 0 mm 6 m/s 670 mmHg 14%
    16:00 +35°C° 0 mm 6 m/s 670 mmHg 14%
    17:00 +34°C° 0 mm 6 m/s 670 mmHg 15%
    18:00 +32°C° 0 mm 5 m/s 670 mmHg 17%
    19:00 +30°C° 0 mm 4 m/s 670 mmHg 19%
    20:00 +28°C° 0 mm 4 m/s 670 mmHg 22%
    21:00 +27°C° 0 mm 4 m/s 670 mmHg 22%
    22:00 +26°C° 0 mm 4 m/s 670 mmHg 22%
    23:00 +25°C° 0 mm 4 m/s 670 mmHg 23%

    28 Outubro, Domingo

    Tempo Temperatura Precipitação Vento Pressão Humidade
    00:00 +25°C° 0 mm 4 m/s 670 mmHg 25%
    01:00 +23°C° 0 mm 4 m/s 669 mmHg 26%
    02:00 +22°C° 0 mm 4 m/s 669 mmHg 28%
    03:00 +21°C° 0 mm 4 m/s 669 mmHg 30%
    04:00 +21°C° 0 mm 4 m/s 669 mmHg 32%
    05:00 +20°C° 0 mm 4 m/s 669 mmHg 34%
    06:00 +21°C° 0 mm 5 m/s 670 mmHg 32%
    07:00 +23°C° 0 mm 6 m/s 670 mmHg 31%
    08:00 +24°C° 0 mm 6 m/s 671 mmHg 29%
    09:00 +27°C° 0 mm 6 m/s 671 mmHg 27%
    10:00 +29°C° 0 mm 6 m/s 671 mmHg 24%
    11:00 +32°C° 0 mm 6 m/s 671 mmHg 21%
    12:00 +33°C° 0 mm 5 m/s 671 mmHg 20%
    13:00 +34°C° 0 mm 5 m/s 670 mmHg 18%
    14:00 +35°C° 0 mm 4 m/s 669 mmHg 17%
    15:00 +35°C° 0 mm 5 m/s 669 mmHg 17%
    16:00 +35°C° 0 mm 5 m/s 669 mmHg 18%
    17:00 +34°C° 0 mm 5 m/s 668 mmHg 19%
    18:00 +32°C° 0 mm 5 m/s 669 mmHg 22%
    19:00 +30°C° 0 mm 5 m/s 669 mmHg 26%
    20:00 +28°C° 0 mm 6 m/s 669 mmHg 30%
    21:00 +27°C° 0 mm 6 m/s 669 mmHg 32%
    22:00 +26°C° 0 mm 6 m/s 669 mmHg 34%
    23:00 +24°C° 0 mm 6 m/s 669 mmHg 36%

    29 Outubro, Segunda-feira

    Tempo Temperatura Precipitação Vento Pressão Humidade
    00:00 +23°C° 0 mm 6 m/s 668 mmHg 36%
    01:00 +23°C° 0 mm 6 m/s 668 mmHg 37%
    02:00 +22°C° 0 mm 6 m/s 667 mmHg 37%
    03:00 +21°C° 0 mm 6 m/s 668 mmHg 38%
    04:00 +21°C° 0 mm 6 m/s 668 mmHg 39%
    05:00 +20°C° 0 mm 6 m/s 668 mmHg 40%
    06:00 +21°C° 0 mm 6 m/s 668 mmHg 40%
    07:00 +22°C° 0 mm 6 m/s 669 mmHg 40%
    08:00 +22°C° 0 mm 6 m/s 669 mmHg 39%
    09:00 +26°C° 0 mm 5 m/s 669 mmHg 34%
    10:00 +28°C° 0 mm 5 m/s 669 mmHg 30%
    11:00 +30°C° 0 mm 4 m/s 670 mmHg 25%
    12:00 +33°C° 0 mm 3 m/s 669 mmHg 22%
    13:00 +35°C° 0 mm 3 m/s 669 mmHg 20%
    14:00 +36°C° 0 mm 2 m/s 668 mmHg 17%
    15:00 +36°C° 0 mm 2 m/s 668 mmHg 16%
    16:00 +36°C° 0 mm 2 m/s 667 mmHg 16%
    17:00 +36°C° 0 mm 2 m/s 667 mmHg 16%
    18:00 +34°C° 0 mm 3 m/s 667 mmHg 19%
    19:00 +32°C° 0 mm 5 m/s 667 mmHg 22%
    20:00 +29°C° 0 mm 6 m/s 667 mmHg 25%
    21:00 +28°C° 0 mm 5 m/s 667 mmHg 27%
    22:00 +27°C° 0 mm 5 m/s 666 mmHg 29%
    23:00 +26°C° 0 mm 5 m/s 666 mmHg 31%

    30 Outubro, Terça-feira

    Tempo Temperatura Precipitação Vento Pressão Humidade
    00:00 +25°C° 0 mm 4 m/s 666 mmHg 31%
    01:00 +23°C° 0 mm 4 m/s 665 mmHg 30%
    02:00 +24°C° 0 mm 3 m/s 664 mmHg 30%
    03:00 +22°C° 0 mm 3 m/s 664 mmHg 29%
    04:00 +23°C° 0 mm 2 m/s 664 mmHg 29%
    05:00 +21°C° 0 mm 2 m/s 664 mmHg 29%
    06:00 +24°C° 0 mm 2 m/s 665 mmHg 26%
    07:00 +27°C° 0 mm 2 m/s 666 mmHg 23%
    08:00 +29°C° 0 mm 2 m/s 667 mmHg 20%
    09:00 +31°C° 0 mm 2 m/s 667 mmHg 18%
    10:00 +35°C° 0 mm 2 m/s 667 mmHg 15%
    11:00 +37°C° 0 mm 2 m/s 668 mmHg 13%
    12:00 +38°C° 0 mm 2 m/s 667 mmHg 12%
    13:00 +39°C° 0 mm 2 m/s 666 mmHg 11%
    14:00 +39°C° 0 mm 2 m/s 665 mmHg 10%
    15:00 +39°C° 0 mm 2 m/s 665 mmHg 11%
    16:00 +38°C° 0 mm 2 m/s 665 mmHg 11%
    17:00 +38°C° 0 mm 2 m/s 664 mmHg 12%
    18:00 +36°C° 0.1 mm 2 m/s 664 mmHg 14%
    19:00 +34°C° 0.1 mm 2 m/s 664 mmHg 16%
    20:00 +32°C° 0.1 mm 2 m/s 664 mmHg 18%
    21:00 +31°C° 0.1 mm 2 m/s 664 mmHg 19%
    22:00 +30°C° 0.1 mm 2 m/s 664 mmHg 20%
    23:00 +30°C° 0.1 mm 2 m/s 665 mmHg 21%
    Mostrar mais